Weather History for KTVI - May, 2014

Change the Weather History Date:

Sunday, May 25, 2014

  Actual Average (KVLD) Record (KVLD)
Temperature  
Mean Temperature 78 °F 76 °F  
Max Temperature 91 °F 88 °F 98 °F (2011)
Min Temperature 66 °F 64 °F 55 °F (2001)
Cooling Degree Days 14 11  
Month to date cooling degree days 208  
Year to date cooling degree days 343  
Growing Degree Days 28 (Base 50)    
Moisture  
Dew Point 66 °F    
Average Humidity 71    
Maximum Humidity 100    
Minimum Humidity 34    
Precipitation  
Precipitation 0.00 in 0.10 in 0.86 in (1997)
Month to date precipitation 1.70  
Year to date precipitation 18.17  
Sea Level Pressure  
Sea Level Pressure 30.10 in    
Wind  
Wind Speed 2 mph (ESE)    
Max Wind Speed 22 mph    
Max Gust Speed 33 mph    
Visibility 9 miles    
Events Rain , Thunderstorm    
T = Trace of Precipitation, MM = Missing Value Source: NWS Daily Summary

Daily Weather History Graph

Daily Weather History Graph

Search for Another Location

Airport or City:

Trip Planner

Search our weather history database for the weather conditions in past years. The results will help you decide how hot, cold, wet, or windy it might be!

Date:

Astronomy

May. 25, 2014 Rise Set
Actual Time 6:35 AM EDT 8:30 PM EDT
Civil Twilight 6:08 AM EDT 8:57 PM EDT
Nautical Twilight 5:35 AM EDT 9:29 PM EDT
Astronomical Twilight 5:00 AM EDT 10:04 PM EDT
Moon 4:25 AM EDT (5/25) 5:41 PM EDT (5/25)
Length of Visible Light 14h 49m
Length of Day
13h 55m
Waning Crescent, 10% of the Moon is Illuminated
May 25
Waning Crescent
May 28
New
Jun 5
First Quarter
Jun 13
Full
Jun 19
Last Quarter

Hourly Weather History & Observations

Time (EDT) Temp. Heat Index Dew Point Humidity Pressure Visibility Wind Dir Wind Speed Gust Speed Precip Events Conditions
12:10 AM 71.6 °F - 64.4 °F 78% 30.08 in 10.0 mi Calm Calm - N/A   Clear
12:30 AM 71.6 °F - 64.4 °F 78% 30.08 in 10.0 mi Calm Calm - N/A   Clear
12:50 AM 71.6 °F - 68.0 °F 88% 30.08 in 10.0 mi Calm Calm - N/A   Clear
1:10 AM 69.8 °F - 66.2 °F 88% 30.08 in 10.0 mi Calm Calm - N/A   Clear
1:30 AM 69.8 °F - 68.0 °F 94% 30.08 in 10.0 mi Calm Calm - N/A   Clear
1:50 AM 69.8 °F - 68.0 °F 94% 30.08 in 10.0 mi SW 3.5 mph - N/A   Clear
2:10 AM 69.8 °F - 68.0 °F 94% 30.08 in 10.0 mi Calm Calm - N/A   Clear
2:30 AM 69.8 °F - 68.0 °F 94% 30.08 in 10.0 mi Calm Calm - N/A   Clear
2:50 AM 69.8 °F - 68.0 °F 94% 30.07 in 10.0 mi Calm Calm - N/A   Clear
3:10 AM 69.8 °F - 68.0 °F 94% 30.07 in 10.0 mi Calm Calm - N/A   Clear
3:30 AM 69.8 °F - 68.0 °F 94% 30.07 in 10.0 mi Calm Calm - N/A   Clear
3:50 AM 68.0 °F - 68.0 °F 100% 30.07 in 7.0 mi Calm Calm - N/A   Clear
4:10 AM 68.0 °F - 68.0 °F 100% 30.07 in 10.0 mi Calm Calm - N/A   Clear
4:30 AM 68.0 °F - 68.0 °F 100% 30.07 in 10.0 mi Calm Calm - N/A   Clear
4:50 AM 68.0 °F - 68.0 °F 100% 30.07 in 10.0 mi Calm Calm - N/A   Clear
5:10 AM 69.8 °F - 69.8 °F 100% 30.07 in 10.0 mi Calm Calm - N/A   Clear
5:30 AM 69.8 °F - 69.8 °F 100% 30.07 in 10.0 mi Calm Calm - N/A   Clear
6:10 AM 68.0 °F - 68.0 °F 100% 30.07 in 10.0 mi Calm Calm - N/A   Clear
6:30 AM 68.0 °F - 68.0 °F 100% 30.08 in 7.0 mi Calm Calm - N/A   Clear
6:50 AM 69.8 °F - 69.8 °F 100% 30.08 in 7.0 mi Calm Calm - N/A   Clear
7:10 AM 69.8 °F - 69.8 °F 100% 30.09 in 7.0 mi Calm Calm - N/A   Clear
7:30 AM 69.8 °F - 69.8 °F 100% 30.09 in 10.0 mi Calm Calm - N/A   Clear
7:50 AM 71.6 °F - 69.8 °F 94% 30.10 in 7.0 mi Calm Calm - N/A   Clear
8:10 AM 73.4 °F - 71.6 °F 94% 30.11 in 7.0 mi Calm Calm - N/A   Clear
8:30 AM 73.4 °F - 71.6 °F 94% 30.11 in 7.0 mi Calm Calm - N/A   Clear
8:50 AM 75.2 °F - 71.6 °F 89% 30.12 in 7.0 mi Calm Calm - N/A   Clear
9:10 AM 77.0 °F - 71.6 °F 83% 30.13 in 7.0 mi East 3.5 mph - N/A   Clear
9:30 AM 77.0 °F - 69.8 °F 78% 30.13 in 10.0 mi Calm Calm - N/A   Clear
9:50 AM 78.8 °F - 69.8 °F 74% 30.13 in 10.0 mi ENE 3.5 mph - N/A   Clear
10:10 AM 78.8 °F - 69.8 °F 74% 30.13 in 10.0 mi Calm Calm - N/A   Clear
10:30 AM 80.6 °F 83.9 °F 69.8 °F 70% 30.13 in 10.0 mi NNE 3.5 mph - N/A   Clear
10:50 AM 82.4 °F 86.3 °F 69.8 °F 66% 30.13 in 10.0 mi ENE 4.6 mph - N/A   Clear
11:10 AM 86.0 °F 89.4 °F 68.0 °F 55% 30.13 in 10.0 mi Calm Calm - N/A   Clear
11:30 AM 86.0 °F 88.2 °F 66.2 °F 51% 30.13 in 10.0 mi ESE 3.5 mph - N/A   Clear
11:50 AM 87.8 °F 89.4 °F 64.4 °F 46% 30.13 in 10.0 mi East 4.6 mph - N/A   Clear
12:10 PM 87.8 °F 88.5 °F 62.6 °F 43% 30.12 in 10.0 mi NE 4.6 mph - N/A   Clear
12:50 PM 89.6 °F 89.5 °F 60.8 °F 38% 30.12 in 10.0 mi SE 4.6 mph - N/A   Scattered Clouds
1:10 PM 87.8 °F 87.6 °F 60.8 °F 40% 30.12 in 10.0 mi East 6.9 mph - N/A   Scattered Clouds
1:30 PM 89.6 °F 88.9 °F 59.0 °F 36% 30.11 in 10.0 mi Calm Calm - N/A   Clear
1:50 PM 87.8 °F 88.5 °F 62.6 °F 43% 30.11 in 10.0 mi East 3.5 mph - N/A   Mostly Cloudy
2:10 PM 89.6 °F 89.5 °F 60.8 °F 38% 30.10 in 10.0 mi East 3.5 mph - N/A   Scattered Clouds
2:30 PM 91.4 °F 91.4 °F 60.8 °F 36% 30.09 in 10.0 mi ENE 5.8 mph - N/A   Scattered Clouds
2:50 PM 89.6 °F 88.9 °F 59.0 °F 36% 30.09 in 10.0 mi North 5.8 mph - N/A   Scattered Clouds
3:10 PM 91.4 °F 90.7 °F 59.0 °F 34% 30.09 in 10.0 mi East 3.5 mph - N/A   Clear
3:30 PM 91.4 °F 91.4 °F 60.8 °F 36% 30.08 in 10.0 mi Calm Calm - N/A   Scattered Clouds
3:50 PM 91.4 °F 90.7 °F 59.0 °F 34% 30.07 in 10.0 mi Calm Calm - N/A   Clear
4:10 PM 91.4 °F 90.7 °F 59.0 °F 34% 30.06 in 10.0 mi North 3.5 mph - N/A   Clear
4:30 PM 91.4 °F 91.4 °F 60.8 °F 36% 30.05 in 10.0 mi SE 5.8 mph - N/A   Mostly Cloudy
4:50 PM 89.6 °F 88.9 °F 59.0 °F 36% 30.05 in 10.0 mi East 3.5 mph - N/A   Scattered Clouds
5:10 PM 91.4 °F 90.7 °F 59.0 °F 34% 30.04 in 10.0 mi East 3.5 mph - N/A   Clear
5:30 PM 91.4 °F 91.4 °F 60.8 °F 36% 30.04 in 10.0 mi SSW 4.6 mph - N/A   Clear
5:50 PM 91.4 °F 91.4 °F 60.8 °F 36% 30.04 in 10.0 mi SSW 3.5 mph - N/A   Clear
6:10 PM 91.4 °F 91.4 °F 60.8 °F 36% 30.04 in 10.0 mi ESE 3.5 mph - N/A   Clear
6:30 PM 91.4 °F 90.7 °F 59.0 °F 34% 30.04 in 10.0 mi East 4.6 mph - N/A   Scattered Clouds
6:50 PM 89.6 °F 88.9 °F 59.0 °F 36% 30.05 in 10.0 mi Calm Calm - N/A   Scattered Clouds
7:10 PM 89.6 °F 88.9 °F 59.0 °F 36% 30.05 in 10.0 mi SE 4.6 mph - N/A   Clear
7:30 PM 86.0 °F 88.2 °F 66.2 °F 51% 30.06 in 10.0 mi Calm Calm - N/A   Scattered Clouds
7:50 PM 82.4 °F 84.6 °F 66.2 °F 58% 30.06 in 10.0 mi Calm Calm - N/A   Scattered Clouds
8:10 PM 80.6 °F 82.7 °F 66.2 °F 61% 30.07 in 10.0 mi Calm Calm - N/A   Mostly Cloudy
8:30 PM 82.4 °F 83.4 °F 62.6 °F 51% 30.09 in 10.0 mi SW 10.4 mph 16.1 mph N/A Thunderstorm Overcast
8:50 PM 73.4 °F - 62.6 °F 69% 30.14 in 10.0 mi WSW 21.9 mph 33.4 mph N/A Rain , Thunderstorm Light Thunderstorms and Rain
9:10 PM 68.0 °F - 60.8 °F 78% 30.16 in 3.0 mi SSW 17.3 mph 29.9 mph N/A Rain , Thunderstorm Light Thunderstorms and Rain
9:30 PM 66.2 °F - 64.4 °F 94% 30.17 in 2.5 mi SE 3.5 mph - N/A Rain , Thunderstorm Heavy Thunderstorms and Rain
9:50 PM 68.0 °F - 66.2 °F 94% 30.17 in 10.0 mi ESE 11.5 mph - N/A Rain , Thunderstorm Light Thunderstorms and Rain
10:10 PM 68.0 °F - 66.2 °F 94% 30.18 in 10.0 mi SE 12.7 mph 17.3 mph N/A Rain , Thunderstorm Light Thunderstorms and Rain
10:30 PM 68.0 °F - 68.0 °F 100% 30.19 in 10.0 mi SE 9.2 mph - N/A Rain Light Rain
10:50 PM 68.0 °F - 68.0 °F 100% 30.19 in 10.0 mi SE 8.1 mph - N/A Rain , Thunderstorm Light Thunderstorms and Rain
11:10 PM 68.0 °F - 68.0 °F 100% 30.19 in 10.0 mi SE 8.1 mph - N/A   Scattered Clouds
11:30 PM 69.8 °F - 69.8 °F 100% 30.18 in 10.0 mi SSE 9.2 mph - N/A   Scattered Clouds
11:50 PM 68.0 °F - 68.0 °F 100% 30.18 in 10.0 mi South 9.2 mph - N/A   Clear